N981LC KSEA-KSNA

Flight info

Callsign N981LC
Flight time N/A
Altitude 39000
Route SUMMA2 SUMMA Q9 REBRG OHSEA3
Aircraft C525/L-SDFGRWY/SB1

Departure

Time 2026-05-05 01:45
Airport Seattle–Tacoma International Airport (KSEA)

Arrival

Time N/A
Airport John Wayne Orange County International Airport (KSNA)
Time Latitude Longitude Altitude Speed Heading
2026-05-05 01:36 47.43976 -122.31559 428 ft 0 kts 116°
2026-05-05 01:39 47.43976 -122.31558 428 ft 0 kts 117°
2026-05-05 01:39 47.43974 -122.31549 428 ft 1 kts 95°
2026-05-05 01:39 47.43972 -122.31521 428 ft 4 kts 101°
2026-05-05 01:39 47.43965 -122.31464 428 ft 7 kts 97°
2026-05-05 01:40 47.43980 -122.31381 428 ft 10 kts 31°
2026-05-05 01:40 47.44060 -122.31365 428 ft 13 kts
2026-05-05 01:40 47.44161 -122.31365 428 ft 15 kts
2026-05-05 01:40 47.44279 -122.31370 428 ft 18 kts 356°
2026-05-05 01:41 47.44418 -122.31363 428 ft 20 kts
2026-05-05 01:41 47.44572 -122.31361 428 ft 23 kts
2026-05-05 01:41 47.44740 -122.31361 428 ft 25 kts
2026-05-05 01:41 47.44922 -122.31358 428 ft 27 kts 360°
2026-05-05 01:42 47.45118 -122.31355 428 ft 28 kts
2026-05-05 01:42 47.45319 -122.31354 428 ft 27 kts
2026-05-05 01:42 47.45504 -122.31351 428 ft 25 kts
2026-05-05 01:42 47.45685 -122.31348 428 ft 28 kts
2026-05-05 01:43 47.45888 -122.31345 428 ft 29 kts
2026-05-05 01:43 47.46081 -122.31344 428 ft 26 kts
2026-05-05 01:43 47.46257 -122.31343 428 ft 22 kts
2026-05-05 01:43 47.46323 -122.31343 428 ft 4 kts
2026-05-05 01:44 47.46359 -122.31361 428 ft 6 kts 312°
2026-05-05 01:44 47.46372 -122.31439 428 ft 10 kts 271°
2026-05-05 01:44 47.46372 -122.31587 428 ft 17 kts 270°
2026-05-05 01:44 47.46344 -122.31773 428 ft 19 kts 210°
2026-05-05 01:45 47.46179 -122.31789 428 ft 34 kts 181°
2026-05-05 01:45 47.45699 -122.31787 428 ft 99 kts 180°
2026-05-05 01:45 47.44849 -122.31799 594 ft 129 kts 184°
2026-05-05 01:45 47.43928 -122.31834 1073 ft 133 kts 184°
2026-05-05 01:46 47.43007 -122.31885 1506 ft 144 kts 185°
2026-05-05 01:46 47.41946 -122.31988 2012 ft 153 kts 188°
2026-05-05 01:46 47.40944 -122.32141 2710 ft 147 kts 187°
2026-05-05 01:46 47.39952 -122.31873 3291 ft 148 kts 161°
2026-05-05 01:47 47.38967 -122.31408 3826 ft 152 kts 167°
2026-05-05 01:47 47.37945 -122.31141 4402 ft 152 kts 174°
2026-05-05 01:47 47.36874 -122.31024 4924 ft 155 kts 179°
2026-05-05 01:47 47.35818 -122.30987 5454 ft 156 kts 180°
2026-05-05 01:48 47.34789 -122.30978 5928 ft 159 kts 181°
2026-05-05 01:48 47.33670 -122.30977 6450 ft 160 kts 180°
2026-05-05 01:48 47.32567 -122.30977 6964 ft 162 kts 180°
2026-05-05 01:48 47.31430 -122.30977 7455 ft 164 kts 180°
2026-05-05 01:49 47.30281 -122.30975 7916 ft 168 kts 180°
2026-05-05 01:49 47.29114 -122.30974 8433 ft 168 kts 179°
2026-05-05 01:49 47.27941 -122.30972 8899 ft 171 kts 179°
2026-05-05 01:49 47.26738 -122.30971 9360 ft 174 kts 179°
2026-05-05 01:50 47.25550 -122.30969 9849 ft 173 kts 179°
2026-05-05 01:50 47.24329 -122.30965 10281 ft 177 kts 179°
2026-05-05 01:50 47.23101 -122.30956 10756 ft 178 kts 178°
2026-05-05 01:50 47.21858 -122.30944 11241 ft 181 kts 178°
2026-05-05 01:51 47.20599 -122.30930 11749 ft 182 kts 178°
2026-05-05 01:51 47.19320 -122.30911 12238 ft 184 kts 178°
2026-05-05 01:51 47.18050 -122.30891 12680 ft 188 kts 178°
2026-05-05 01:51 47.16755 -122.30866 13167 ft 187 kts 175°
2026-05-05 01:52 47.15570 -122.30213 13603 ft 182 kts 140°
2026-05-05 01:52 47.14560 -122.29107 14049 ft 183 kts 135°
2026-05-05 01:52 47.13561 -122.27934 14497 ft 184 kts 133°
2026-05-05 01:52 47.12574 -122.26711 14947 ft 182 kts 124°
2026-05-05 01:53 47.12101 -122.25199 15307 ft 174 kts 101°
2026-05-05 01:53 47.11357 -122.23737 15730 ft 187 kts 130°
2026-05-05 01:53 47.10363 -122.22483 16136 ft 190 kts 134°
2026-05-05 01:53 47.09337 -122.21260 16568 ft 191 kts 135°
2026-05-05 01:54 47.08302 -122.20033 16964 ft 193 kts 135°
2026-05-05 01:54 47.07228 -122.18860 17363 ft 196 kts 139°
2026-05-05 01:54 47.06148 -122.17741 17730 ft 198 kts 139°
2026-05-05 01:54 47.05031 -122.16582 18140 ft 199 kts 138°
2026-05-05 01:55 47.03846 -122.15481 18544 ft 202 kts 150°
2026-05-05 01:55 47.02526 -122.14765 18923 ft 206 kts 158°
2026-05-05 01:55 47.01217 -122.14200 19273 ft 209 kts 160°
2026-05-05 01:55 46.99801 -122.13629 19640 ft 211 kts 160°
2026-05-05 01:56 46.98398 -122.13075 19998 ft 212 kts 161°
2026-05-05 01:56 46.96959 -122.12509 20359 ft 214 kts 161°
2026-05-05 01:56 46.95523 -122.11946 20705 ft 216 kts 161°
2026-05-05 01:56 46.94070 -122.11377 21038 ft 218 kts 160°
2026-05-05 01:57 46.92593 -122.10799 21381 ft 220 kts 160°
2026-05-05 01:57 46.91102 -122.10216 21720 ft 222 kts 161°
2026-05-05 01:57 46.89602 -122.09631 22051 ft 223 kts 160°
2026-05-05 01:57 46.88091 -122.09041 22352 ft 225 kts 160°
2026-05-05 01:58 46.86587 -122.08455 22690 ft 225 kts 160°
2026-05-05 01:58 46.85078 -122.07867 22995 ft 226 kts 159°
2026-05-05 01:58 46.83601 -122.07291 23278 ft 228 kts 159°
2026-05-05 01:58 46.82069 -122.06695 23602 ft 228 kts 159°
2026-05-05 01:59 46.80524 -122.06094 23898 ft 230 kts 160°
2026-05-05 01:59 46.78988 -122.05498 24217 ft 230 kts 159°
2026-05-05 01:59 46.77419 -122.04887 24501 ft 232 kts 160°
2026-05-05 01:59 46.75840 -122.04274 24780 ft 234 kts 159°
2026-05-05 02:00 46.74277 -122.03668 25097 ft 233 kts 160°
2026-05-05 02:00 46.72697 -122.03055 25359 ft 236 kts 160°
2026-05-05 02:00 46.71121 -122.02445 25662 ft 235 kts 160°
2026-05-05 02:00 46.69551 -122.01836 25928 ft 237 kts 159°
2026-05-05 02:01 46.67949 -122.01216 26184 ft 239 kts 159°
2026-05-05 02:01 46.66338 -122.00593 26471 ft 238 kts 159°
2026-05-05 02:01 46.64746 -121.99978 26727 ft 240 kts 160°
2026-05-05 02:01 46.63134 -121.99355 27027 ft 239 kts 159°
2026-05-05 02:02 46.61522 -121.98774 27262 ft 242 kts 163°
2026-05-05 02:02 46.59833 -121.98319 27497 ft 245 kts 166°
2026-05-05 02:02 46.58167 -121.97915 27750 ft 246 kts 166°
2026-05-05 02:02 46.56456 -121.97505 27979 ft 248 kts 166°
2026-05-05 02:03 46.54771 -121.97104 28245 ft 248 kts 166°
2026-05-05 02:03 46.53061 -121.96695 28470 ft 249 kts 166°
2026-05-05 02:03 46.51358 -121.96287 28691 ft 251 kts 166°
2026-05-05 02:03 46.49630 -121.95873 28974 ft 250 kts 166°
2026-05-05 02:04 46.47917 -121.95460 29153 ft 253 kts 166°
2026-05-05 02:04 46.46173 -121.95039 29409 ft 253 kts 166°
2026-05-05 02:04 46.44432 -121.94620 29643 ft 253 kts 166°
2026-05-05 02:04 46.42683 -121.94198 29878 ft 254 kts 165°
2026-05-05 02:05 46.40956 -121.93780 30080 ft 255 kts 165°
2026-05-05 02:05 46.39183 -121.93353 30296 ft 256 kts 165°
2026-05-05 02:05 46.37438 -121.92931 30494 ft 258 kts 165°
2026-05-05 02:05 46.35663 -121.92503 30745 ft 257 kts 165°
2026-05-05 02:06 46.33902 -121.92078 30935 ft 259 kts 165°
2026-05-05 02:06 46.32104 -121.91645 31130 ft 261 kts 165°
2026-05-05 02:06 46.30328 -121.91218 31353 ft 261 kts 165°
2026-05-05 02:06 46.28515 -121.90781 31537 ft 262 kts 165°
2026-05-05 02:07 46.26719 -121.90348 31772 ft 262 kts 164°
2026-05-05 02:07 46.24904 -121.89911 31951 ft 263 kts 165°
2026-05-05 02:07 46.23101 -121.89477 32168 ft 264 kts 164°
2026-05-05 02:07 46.21292 -121.89040 32328 ft 266 kts 164°
2026-05-05 02:08 46.19454 -121.88599 32540 ft 266 kts 163°
2026-05-05 02:08 46.17627 -121.88161 32688 ft 269 kts 164°
2026-05-05 02:08 46.15776 -121.87717 32915 ft 268 kts 164°
2026-05-05 02:08 46.13933 -121.87276 33109 ft 268 kts 163°
2026-05-05 02:09 46.12087 -121.86835 33331 ft 268 kts 163°
2026-05-05 02:09 46.10308 -121.86409 33491 ft 269 kts 163°
2026-05-05 02:09 46.08463 -121.85969 33675 ft 270 kts 163°
2026-05-05 02:09 46.06618 -121.85526 33855 ft 270 kts 163°
2026-05-05 02:10 46.04761 -121.85085 34006 ft 273 kts 163°
2026-05-05 02:10 46.02877 -121.84634 34155 ft 275 kts 163°
2026-05-05 02:10 46.00972 -121.84182 34388 ft 274 kts 163°
2026-05-05 02:10 45.99078 -121.83731 34538 ft 276 kts 163°
2026-05-05 02:11 45.97182 -121.83280 34741 ft 276 kts 163°
2026-05-05 02:11 45.95272 -121.82826 34907 ft 277 kts 163°
2026-05-05 02:11 45.93360 -121.82372 35068 ft 278 kts 163°
2026-05-05 02:11 45.91447 -121.81917 35229 ft 279 kts 163°
2026-05-05 02:12 45.89522 -121.81461 35422 ft 279 kts 162°
2026-05-05 02:12 45.85674 -121.80549 35715 ft 280 kts 162°
2026-05-05 02:12 45.83741 -121.80092 35823 ft 282 kts 162°
2026-05-05 02:13 45.81830 -121.79639 35967 ft 283 kts 161°
2026-05-05 02:13 45.80026 -121.79211 36040 ft 286 kts 162°
2026-05-05 02:13 45.78050 -121.78744 36191 ft 285 kts 162°
2026-05-05 02:13 45.76074 -121.78279 36373 ft 285 kts 162°
2026-05-05 02:14 45.74118 -121.77817 36462 ft 287 kts 162°
2026-05-05 02:14 45.72138 -121.77351 36613 ft 287 kts 162°
2026-05-05 02:14 45.70166 -121.76886 36739 ft 288 kts 162°
2026-05-05 02:14 45.68184 -121.76419 36857 ft 289 kts 161°
2026-05-05 02:15 45.66195 -121.75950 36950 ft 291 kts 162°
2026-05-05 02:15 45.64212 -121.75485 37067 ft 292 kts 162°
2026-05-05 02:15 45.62192 -121.75008 37168 ft 293 kts 161°
2026-05-05 02:15 45.60208 -121.74545 37351 ft 291 kts 161°
2026-05-05 02:16 45.58165 -121.74065 37416 ft 294 kts 161°
2026-05-05 02:16 45.56150 -121.73593 37556 ft 294 kts 161°
2026-05-05 02:16 45.54118 -121.73116 37668 ft 295 kts 161°
2026-05-05 02:16 45.52108 -121.72643 37739 ft 297 kts 161°
2026-05-05 02:17 45.50057 -121.72163 37920 ft 295 kts 161°
2026-05-05 02:17 45.48029 -121.71688 37996 ft 297 kts 161°
2026-05-05 02:17 45.45988 -121.71210 38105 ft 298 kts 161°
2026-05-05 02:17 45.43954 -121.70734 38199 ft 299 kts 161°
2026-05-05 02:18 45.41900 -121.70255 38323 ft 299 kts 161°
2026-05-05 02:18 45.37765 -121.69293 38547 ft 300 kts 161°
2026-05-05 02:18 45.35704 -121.68815 38665 ft 300 kts 161°
2026-05-05 02:19 45.33641 -121.68335 38728 ft 301 kts 161°
2026-05-05 02:19 45.31582 -121.67860 38842 ft 302 kts 160°
2026-05-05 02:19 45.29504 -121.67377 38890 ft 304 kts 161°
2026-05-05 02:20 45.25288 -121.66396 38964 ft 310 kts 161°
2026-05-05 02:20 45.20972 -121.65393 38969 ft 320 kts 161°
2026-05-05 02:21 45.16476 -121.64352 38960 ft 329 kts 161°
2026-05-05 02:21 45.11894 -121.63294 38958 ft 338 kts 162°
2026-05-05 02:22 45.07160 -121.62202 38963 ft 348 kts 162°
2026-05-05 02:22 45.02308 -121.61084 38945 ft 358 kts 162°
2026-05-05 02:23 44.97316 -121.59934 38948 ft 366 kts 162°
2026-05-05 02:23 44.92265 -121.58775 38946 ft 374 kts 162°
2026-05-05 02:24 44.87098 -121.57601 38948 ft 380 kts 162°
2026-05-05 02:24 44.81757 -121.56381 38944 ft 384 kts 162°
2026-05-05 02:25 44.76453 -121.55173 38955 ft 388 kts 162°
2026-05-05 02:25 44.71103 -121.53958 38951 ft 392 kts 162°
2026-05-05 02:26 44.65697 -121.52733 38952 ft 395 kts 163°
2026-05-05 02:26 44.60231 -121.51495 38944 ft 398 kts 162°
2026-05-05 02:27 44.54693 -121.50242 38958 ft 402 kts 162°
2026-05-05 02:27 44.49157 -121.48992 38957 ft 406 kts 162°
2026-05-05 02:28 44.43558 -121.47728 38941 ft 410 kts 162°
2026-05-05 02:28 44.37899 -121.46452 38933 ft 413 kts 162°
2026-05-05 02:29 44.32200 -121.45174 38933 ft 415 kts 162°
2026-05-05 02:29 44.26449 -121.43889 38927 ft 418 kts 162°
2026-05-05 02:30 44.20751 -121.42614 38957 ft 418 kts 162°
2026-05-05 02:30 44.15210 -121.41375 38977 ft 420 kts 162°
2026-05-05 02:31 44.09439 -121.40089 38971 ft 421 kts 162°
2026-05-05 02:31 44.03587 -121.38787 38983 ft 422 kts 162°
2026-05-05 02:32 43.97781 -121.37498 38984 ft 423 kts 162°
2026-05-05 02:32 43.92100 -121.36240 38981 ft 424 kts 162°
2026-05-05 02:33 43.86304 -121.34960 39003 ft 424 kts 163°
2026-05-05 02:33 43.80469 -121.33669 39016 ft 425 kts 163°
2026-05-05 02:34 43.74603 -121.32365 39008 ft 425 kts 163°
2026-05-05 02:34 43.68744 -121.31067 39009 ft 426 kts 163°
2026-05-05 02:35 43.62905 -121.29775 39012 ft 426 kts 163°
2026-05-05 02:35 43.57088 -121.28493 39007 ft 427 kts 163°
2026-05-05 02:36 43.51297 -121.27218 39002 ft 427 kts 162°
2026-05-05 02:36 43.45394 -121.25920 38998 ft 428 kts 162°
2026-05-05 02:37 43.39531 -121.24638 39006 ft 427 kts 163°
2026-05-05 02:37 43.33623 -121.23347 39004 ft 427 kts 162°